• Em Portugal
  • Lista de países
  • Para 7 dias
  • Temperatura da água
  • Mapas de satélite
  • Mapa do tempo
  • Widgets de tempo
  • user-avatar
    Iniciar Sessão

    Previsão horária em Totonicapán

    Hoje, 23 Agosto, Quarta-feira

    Tempo Temperatura Precipitação Vento Pressão Humidade
    00:00 +10°C° 1,4 mm 1 m/s 555 mmHg 91%
    01:00 +10°C° 0,8 mm 1 m/s 555 mmHg 91%
    02:00 +10°C° 0,8 mm 1 m/s 554 mmHg 90%
    03:00 +9°C° 0,8 mm 1 m/s 554 mmHg 89%
    04:00 +9°C° 0,4 mm 1 m/s 554 mmHg 88%
    05:00 +9°C° 0,4 mm 1 m/s 554 mmHg 88%
    06:00 +9°C° 0,4 mm 1 m/s 554 mmHg 87%
    07:00 +11°C° 0,2 mm 1 m/s 555 mmHg 80%
    08:00 +14°C° 0,2 mm 1 m/s 557 mmHg 73%
    09:00 +15°C° 0,2 mm 0 m/s 558 mmHg 66%
    10:00 +18°C° 0,3 mm 1 m/s 558 mmHg 65%
    11:00 +19°C° 0,3 mm 1 m/s 558 mmHg 63%
    12:00 +20°C° 0,3 mm 1 m/s 559 mmHg 62%
    13:00 +19°C° 1,1 mm 1 m/s 558 mmHg 66%
    14:00 +18°C° 1,1 mm 1 m/s 557 mmHg 70%
    15:00 +16°C° 1,1 mm 1 m/s 556 mmHg 74%
    16:00 +15°C° 1,2 mm 1 m/s 555 mmHg 79%
    17:00 +14°C° 1,2 mm 1 m/s 555 mmHg 84%
    18:00 +12°C° 1,2 mm 0 m/s 554 mmHg 90%
    19:00 +11°C° 0,9 mm 0 m/s 554 mmHg 90%
    20:00 +12°C° 0,9 mm 1 m/s 554 mmHg 90%
    21:00 +11°C° 0,9 mm 1 m/s 555 mmHg 90%
    22:00 +11°C° 0,7 mm 1 m/s 554 mmHg 89%
    23:00 +11°C° 0,7 mm 1 m/s 554 mmHg 89%

    Amanhã, 24 Agosto, Quinta-feira

    Tempo Temperatura Precipitação Vento Pressão Humidade
    00:00 +11°C° 0,7 mm 1 m/s 554 mmHg 89%
    01:00 +11°C° 0,3 mm 1 m/s 554 mmHg 89%
    02:00 +11°C° 0,3 mm 1 m/s 553 mmHg 88%
    03:00 +10°C° 0,3 mm 1 m/s 553 mmHg 88%
    04:00 +10°C° 0,1 mm 1 m/s 553 mmHg 88%
    05:00 +10°C° 0,1 mm 1 m/s 553 mmHg 88%
    06:00 +10°C° 0,1 mm 1 m/s 553 mmHg 87%
    07:00 +12°C° 0,1 mm 1 m/s 554 mmHg 82%
    08:00 +14°C° 0,1 mm 1 m/s 556 mmHg 76%
    09:00 +16°C° 0,1 mm 1 m/s 557 mmHg 70%
    10:00 +18°C° 0,3 mm 1 m/s 557 mmHg 67%
    11:00 +19°C° 0,3 mm 1 m/s 557 mmHg 64%
    12:00 +20°C° 0,3 mm 1 m/s 558 mmHg 61%
    13:00 +19°C° 1,7 mm 1 m/s 557 mmHg 66%
    14:00 +18°C° 1,7 mm 1 m/s 556 mmHg 72%
    15:00 +16°C° 1,7 mm 1 m/s 555 mmHg 77%
    16:00 +15°C° 2,1 mm 1 m/s 554 mmHg 81%
    17:00 +14°C° 2,1 mm 1 m/s 554 mmHg 85%
    18:00 +12°C° 2,1 mm 0 m/s 553 mmHg 90%
    19:00 +11°C° 1,3 mm 0 m/s 554 mmHg 90%
    20:00 +11°C° 1,3 mm 0 m/s 554 mmHg 91%
    21:00 +10°C° 1,3 mm 0 m/s 554 mmHg 92%
    22:00 +10°C° 1,3 mm 0 m/s 554 mmHg 92%
    23:00 +10°C° 1,3 mm 0 m/s 554 mmHg 91%

    Depois de amanhã, 25 Agosto, Sexta-feira

    Tempo Temperatura Precipitação Vento Pressão Humidade
    00:00 +10°C° 1,3 mm 0 m/s 554 mmHg 91%
    01:00 +10°C° 1,2 mm 1 m/s 554 mmHg 91%
    02:00 +10°C° 1,2 mm 1 m/s 553 mmHg 91%
    03:00 +10°C° 1,2 mm 1 m/s 553 mmHg 91%
    04:00 +10°C° 0,9 mm 1 m/s 553 mmHg 91%
    05:00 +10°C° 0,9 mm 1 m/s 553 mmHg 90%
    06:00 +10°C° 0,9 mm 1 m/s 553 mmHg 90%
    07:00 +11°C° 0,4 mm 1 m/s 554 mmHg 85%
    08:00 +13°C° 0,4 mm 1 m/s 556 mmHg 81%
    09:00 +15°C° 0,4 mm 1 m/s 557 mmHg 76%
    10:00 +15°C° 0,6 mm 1 m/s 557 mmHg 75%
    11:00 +15°C° 0,6 mm 1 m/s 557 mmHg 75%
    12:00 +15°C° 0,6 mm 1 m/s 557 mmHg 74%
    13:00 +16°C° 0,7 mm 1 m/s 556 mmHg 74%
    14:00 +16°C° 0,7 mm 1 m/s 556 mmHg 74%
    15:00 +16°C° 0,7 mm 1 m/s 555 mmHg 74%
    16:00 +15°C° 1,2 mm 1 m/s 555 mmHg 81%
    17:00 +14°C° 1,2 mm 1 m/s 555 mmHg 87%
    18:00 +12°C° 1,2 mm 1 m/s 554 mmHg 93%
    19:00 +12°C° 1,9 mm 1 m/s 554 mmHg 94%
    20:00 +12°C° 1,9 mm 1 m/s 555 mmHg 95%
    21:00 +10°C° 1,9 mm 0 m/s 555 mmHg 96%
    22:00 +10°C° 2,3 mm 0 m/s 555 mmHg 96%
    23:00 +10°C° 2,3 mm 0 m/s 555 mmHg 96%

    26 Agosto, Sábado

    Tempo Temperatura Precipitação Vento Pressão Humidade
    00:00 +11°C° 2,3 mm 1 m/s 555 mmHg 96%
    01:00 +10°C° 1,3 mm 1 m/s 554 mmHg 95%
    02:00 +10°C° 1,3 mm 1 m/s 554 mmHg 95%
    03:00 +10°C° 1,3 mm 1 m/s 554 mmHg 94%
    04:00 +10°C° 1 mm 1 m/s 554 mmHg 94%
    05:00 +10°C° 1 mm 1 m/s 554 mmHg 93%
    06:00 +10°C° 1 mm 1 m/s 554 mmHg 93%
    07:00 +11°C° 0,8 mm 1 m/s 555 mmHg 89%
    08:00 +12°C° 0,8 mm 1 m/s 556 mmHg 84%
    09:00 +14°C° 0,8 mm 1 m/s 557 mmHg 80%
    10:00 +14°C° 0,5 mm 1 m/s 557 mmHg 77%
    11:00 +15°C° 0,5 mm 2 m/s 557 mmHg 73%
    12:00 +16°C° 0,5 mm 2 m/s 557 mmHg 70%
    13:00 +16°C° 1 mm 2 m/s 556 mmHg 73%
    14:00 +15°C° 1 mm 2 m/s 556 mmHg 77%
    15:00 +15°C° 1 mm 2 m/s 555 mmHg 80%
    16:00 +14°C° 1,4 mm 1 m/s 555 mmHg 84%
    17:00 +13°C° 1,4 mm 1 m/s 554 mmHg 89%
    18:00 +12°C° 1,4 mm 1 m/s 554 mmHg 93%
    19:00 +12°C° 1,3 mm 1 m/s 554 mmHg 93%
    20:00 +11°C° 1,3 mm 1 m/s 555 mmHg 94%
    21:00 +11°C° 1,3 mm 1 m/s 555 mmHg 94%
    22:00 +11°C° 1,1 mm 1 m/s 555 mmHg 94%
    23:00 +11°C° 1,1 mm 1 m/s 555 mmHg 94%

    27 Agosto, Domingo

    Tempo Temperatura Precipitação Vento Pressão Humidade
    00:00 +11°C° 1,1 mm 1 m/s 554 mmHg 94%
    01:00 +11°C° 0,6 mm 1 m/s 554 mmHg 94%
    02:00 +11°C° 0,6 mm 1 m/s 554 mmHg 94%
    03:00 +11°C° 0,6 mm 1 m/s 554 mmHg 93%
    04:00 +10°C° 0,4 mm 1 m/s 554 mmHg 93%
    05:00 +10°C° 0,4 mm 1 m/s 554 mmHg 92%
    06:00 +10°C° 0,4 mm 1 m/s 554 mmHg 92%
    07:00 +12°C° 0,2 mm 1 m/s 555 mmHg 87%
    08:00 +13°C° 0,2 mm 1 m/s 556 mmHg 83%
    09:00 +14°C° 0,2 mm 1 m/s 557 mmHg 79%
    10:00 +15°C° 0,3 mm 1 m/s 557 mmHg 75%
    11:00 +16°C° 0,3 mm 2 m/s 557 mmHg 71%
    12:00 +16°C° 0,3 mm 2 m/s 557 mmHg 68%
    13:00 +16°C° 0,7 mm 2 m/s 556 mmHg 71%
    14:00 +16°C° 0,7 mm 2 m/s 555 mmHg 75%
    15:00 +15°C° 0,7 mm 2 m/s 555 mmHg 78%
    16:00 +14°C° 1 mm 1 m/s 555 mmHg 82%
    17:00 +13°C° 1 mm 1 m/s 554 mmHg 86%
    18:00 +13°C° 1 mm 1 m/s 554 mmHg 90%
    19:00 +12°C° 1 mm 1 m/s 554 mmHg 91%
    20:00 +12°C° 1 mm 1 m/s 554 mmHg 92%
    21:00 +11°C° 1 mm 1 m/s 554 mmHg 93%
    22:00 +11°C° 0,5 mm 1 m/s 554 mmHg 93%
    23:00 +11°C° 0,5 mm 1 m/s 554 mmHg 93%

    28 Agosto, Segunda-feira

    Tempo Temperatura Precipitação Vento Pressão Humidade
    00:00 +10°C° 0,5 mm 1 m/s 554 mmHg 93%
    01:00 +10°C° 0 mm 1 m/s 554 mmHg 93%
    02:00 +10°C° 0 mm 1 m/s 553 mmHg 93%
    03:00 +10°C° 0 mm 1 m/s 553 mmHg 92%
    04:00 +9°C° 0 mm 1 m/s 553 mmHg 91%
    05:00 +9°C° 0 mm 1 m/s 553 mmHg 91%
    06:00 +8°C° 0 mm 1 m/s 553 mmHg 90%
    07:00 +11°C° 0 mm 1 m/s 554 mmHg 79%
    08:00 +14°C° 0 mm 1 m/s 556 mmHg 69%
    09:00 +16°C° 0 mm 1 m/s 557 mmHg 58%
    10:00 +18°C° 0 mm 1 m/s 557 mmHg 57%
    11:00 +18°C° 0 mm 2 m/s 558 mmHg 55%
    12:00 +19°C° 0 mm 2 m/s 558 mmHg 53%
    13:00 +18°C° 0,5 mm 2 m/s 557 mmHg 59%
    14:00 +17°C° 0,5 mm 2 m/s 556 mmHg 64%
    15:00 +16°C° 0,5 mm 2 m/s 555 mmHg 70%
    16:00 +15°C° 0,6 mm 1 m/s 555 mmHg 75%
    17:00 +14°C° 0,6 mm 1 m/s 555 mmHg 81%
    18:00 +13°C° 0,6 mm 1 m/s 554 mmHg 86%
    19:00 +12°C° 0,4 mm 1 m/s 554 mmHg 88%
    20:00 +11°C° 0,4 mm 1 m/s 554 mmHg 91%
    21:00 +10°C° 0,4 mm 0 m/s 554 mmHg 93%
    22:00 +10°C° 0,1 mm 1 m/s 554 mmHg 93%
    23:00 +10°C° 0,1 mm 1 m/s 554 mmHg 93%
    Mostrar mais